| time (UTC) | temp C | wind direction | speed KPH | gust KPH | rain 1hr cm | rain 24hr cm | rain mn cm | humidity % | barometer mb |
| 20260508110037 | 7 | 185 | 0.0 | 8.0 | 0.00 | 0.03 | 0.03 | 81 | 1012.5 |
| 20260508104537 | 7 | 0 | 1.6 | 14.5 | 0.00 | 0.03 | 0.03 | 79 | 1012.4 |
| 20260508103036 | 8 | 174 | 6.4 | 19.3 | 0.00 | 0.03 | 0.03 | 79 | 1012.1 |
| 20260508101540 | 8 | 232 | 1.6 | 12.9 | 0.00 | 0.03 | 0.03 | 77 | 1012.9 |
| 20260508100041 | 8 | 169 | 1.6 | 8.0 | 0.00 | 0.03 | 0.03 | 77 | 1012.4 |
| 20260508094539 | 7 | 275 | 0.0 | 4.8 | 0.00 | 0.03 | 0.03 | 79 | 1012.5 |
| 20260508093037 | 7 | 0 | 1.6 | 14.5 | 0.00 | 0.03 | 0.03 | 79 | 1012.5 |
| 20260508091540 | 7 | 172 | 0.0 | 9.7 | 0.00 | 0.03 | 0.03 | 79 | 1012.5 |
| 20260508090103 | 7 | 141 | 1.6 | 9.7 | 0.00 | 0.03 | 0.03 | 79 | 1012.8 |
| 20260508084544 | 7 | 0 | 1.6 | 11.3 | 0.00 | 0.03 | 0.03 | 79 | 1012.7 |
| 20260508083038 | 7 | 0 | 1.6 | 12.9 | 0.00 | 0.03 | 0.03 | 81 | 1012.6 |
| 20260508081548 | 6 | 0 | 0.0 | 8.0 | 0.00 | 0.03 | 0.03 | 81 | 1012.7 |
| 20260508080040 | 6 | 0 | 1.6 | 8.0 | 0.00 | 0.03 | 0.03 | 81 | 1012.8 |
| 20260508074543 | 7 | 175 | 1.6 | 8.0 | 0.03 | 0.03 | 0.03 | 81 | 1012.8 |
| 20260508073047 | 7 | 0 | 0.0 | 9.7 | 0.03 | 0.03 | 0.03 | 81 | 1013.0 |
| 20260508070036 | 7 | 199 | 3.2 | 16.1 | 0.03 | 0.03 | 0.03 | 79 | 1013.1 |
| 20260508064539 | 8 | 121 | 4.8 | 16.1 | 0.00 | 0.00 | 0.00 | 72 | 1013.3 |
| 20260508063039 | 8 | 192 | 3.2 | 16.1 | 0.00 | 0.00 | 0.00 | 68 | 1013.1 |
| 20260508061542 | 8 | 0 | 0.0 | 11.3 | 0.00 | 0.00 | 0.00 | 68 | 1013.2 |
| 20260508060049 | 7 | 182 | 0.0 | 6.4 | 0.00 | 0.00 | 0.00 | 70 | 1013.2 |
| 20260508054541 | 7 | 175 | 0.0 | 8.0 | 0.00 | 0.00 | 0.00 | 71 | 1013.3 |
| 20260508053039 | 7 | 0 | 0.0 | 4.8 | 0.00 | 0.00 | 0.00 | 70 | 1013.4 |
| 20260508051555 | 8 | 188 | 0.0 | 3.2 | 0.00 | 0.00 | 0.00 | 69 | 1013.6 |
| 20260508050038 | 8 | 0 | 0.0 | 3.2 | 0.00 | 0.00 | 0.00 | 68 | 1013.6 |
| 20260508044543 | 8 | 0 | 0.0 | 3.2 | 0.00 | 0.00 | 0.00 | 66 | 1013.6 |
| 20260508043042 | 8 | 0 | 0.0 | 3.2 | 0.00 | 0.00 | 0.00 | 66 | 1013.6 |
| 20260508041539 | 8 | 0 | 0.0 | 8.0 | 0.00 | 0.00 | 0.00 | 64 | 1013.6 |
| 20260508040049 | 8 | 0 | 0.0 | 12.9 | 0.00 | 0.00 | 0.00 | 64 | 1013.8 |
| 20260508034546 | 8 | 0 | 0.0 | 9.7 | 0.00 | 0.00 | 0.00 | 64 | 1013.8 |
| 20260508033045 | 8 | 0 | 1.6 | 12.9 | 0.00 | 0.00 | 0.00 | 63 | 1013.9 |
| 20260508031541 | 8 | 199 | 3.2 | 14.5 | 0.00 | 0.00 | 0.00 | 63 | 1013.9 |
| 20260508030040 | 7 | 0 | 0.0 | 6.4 | 0.00 | 0.00 | 0.00 | 64 | 1014.0 |
| 20260508024558 | 7 | 0 | 0.0 | 9.7 | 0.00 | 0.00 | 0.00 | 66 | 1014.0 |
| 20260508023040 | 7 | 0 | 0.0 | 0.0 | 0.00 | 0.00 | 0.00 | 68 | 1013.8 |
| 20260508021538 | 7 | 0 | 0.0 | 0.0 | 0.00 | 0.00 | 0.00 | 68 | 1013.6 |
| 20260508020046 | 8 | 0 | 0.0 | 0.0 | 0.00 | 0.00 | 0.00 | 66 | 1013.5 |
| 20260508014543 | 8 | 0 | 0.0 | 0.0 | 0.00 | 0.00 | 0.00 | 66 | 1013.4 |
| 20260508013037 | 8 | 0 | 0.0 | 0.0 | 0.00 | 0.00 | 0.00 | 65 | 1013.4 |
| 20260508011539 | 8 | 0 | 0.0 | 0.0 | 0.00 | 0.00 | 0.00 | 61 | 1013.3 |
| 20260508010049 | 8 | 0 | 0.0 | 0.0 | 0.00 | 0.00 | 0.00 | 57 | 1013.2 |
| 20260508004546 | 10 | 0 | 0.0 | 0.0 | 0.00 | 0.00 | 0.00 | 54 | 1013.1 |
| 20260508003038 | 10 | 0 | 0.0 | 1.6 | 0.00 | 0.00 | 0.00 | 51 | 1013.1 |
| 20260508001543 | 11 | 0 | 0.0 | 6.4 | 0.00 | 0.00 | 0.00 | 49 | 1013.0 |
| 20260508000041 | 11 | 0 | 0.0 | 12.9 | 0.00 | 0.00 | 0.00 | 48 | 1012.8 |
| 20260507234538 | 11 | 0 | 0.0 | 9.7 | 0.00 | 0.00 | 0.00 | 47 | 1012.8 |
| 20260507233037 | 11 | 344 | 3.2 | 14.5 | 0.00 | 0.00 | 0.00 | 46 | 1012.7 |
| 20260507231542 | 11 | 343 | 1.6 | 9.7 | 0.00 | 0.00 | 0.00 | 44 | 1012.7 |
| 20260507230042 | 12 | 0 | 1.6 | 16.1 | 0.00 | 0.00 | 0.00 | 45 | 1012.8 |
| 20260507224537 | 12 | 337 | 1.6 | 17.7 | 0.00 | 0.00 | 0.00 | 45 | 1013.0 |
| 20260507223041 | 12 | 247 | 3.2 | 16.1 | 0.00 | 0.00 | 0.00 | 46 | 1012.8 |
| 20260507221542 | 12 | 273 | 1.6 | 17.7 | 0.00 | 0.00 | 0.00 | 47 | 1012.8 |
| 20260507220037 | 12 | 355 | 1.6 | 11.3 | 0.00 | 0.00 | 0.00 | 45 | 1012.8 |
| 20260507214537 | 11 | 355 | 3.2 | 19.3 | 0.00 | 0.00 | 0.00 | 49 | 1012.6 |
| 20260507213037 | 12 | 298 | 3.2 | 17.7 | 0.00 | 0.00 | 0.00 | 49 | 1012.5 |
| 20260507211537 | 12 | 318 | 1.6 | 19.3 | 0.00 | 0.00 | 0.00 | 49 | 1012.4 |
| 20260507210046 | 12 | 261 | 4.8 | 22.5 | 0.00 | 0.00 | 0.00 | 46 | 1012.2 |
| 20260507204538 | 13 | 274 | 4.8 | 27.4 | 0.00 | 0.00 | 0.00 | 43 | 1012.2 |
| 20260507203105 | 12 | 266 | 8.0 | 29.0 | 0.00 | 0.00 | 0.00 | 43 | 1012.2 |
| 20260507201537 | 12 | 231 | 4.8 | 25.7 | 0.00 | 0.00 | 0.00 | 48 | 1012.2 |
| 20260507200037 | 12 | 277 | 3.2 | 22.5 | 0.00 | 0.00 | 0.00 | 50 | 1012.1 |
| 20260507194536 | 13 | 329 | 3.2 | 19.3 | 0.00 | 0.00 | 0.00 | 47 | 1012.2 |
| 20260507193040 | 13 | 270 | 4.8 | 27.4 | 0.00 | 0.00 | 0.00 | 43 | 1012.3 |
| 20260507191539 | 12 | 272 | 1.6 | 19.3 | 0.00 | 0.00 | 0.00 | 49 | 1012.4 |
| 20260507190045 | 14 | 184 | 6.4 | 20.9 | 0.00 | 0.00 | 0.00 | 49 | 1012.5 |
| 20260507184537 | 13 | 350 | 4.8 | 19.3 | 0.00 | 0.00 | 0.00 | 44 | 1012.4 |
| 20260507183036 | 13 | 283 | 4.8 | 20.9 | 0.00 | 0.00 | 0.00 | 45 | 1012.5 |
| 20260507181537 | 13 | 284 | 3.2 | 14.5 | 0.00 | 0.00 | 0.00 | 45 | 1012.6 |
| 20260507180042 | 13 | 0 | 1.6 | 16.1 | 0.00 | 0.00 | 0.00 | 45 | 1012.6 |
| 20260507174544 | 12 | 223 | 4.8 | 20.9 | 0.00 | 0.00 | 0.00 | 45 | 1012.7 |
| 20260507173108 | 12 | 215 | 4.8 | 20.9 | 0.00 | 0.00 | 0.00 | 46 | 1012.8 |
| 20260507171542 | 12 | 303 | 3.2 | 12.9 | 0.00 | 0.00 | 0.00 | 47 | 1012.9 |
| 20260507170039 | 12 | 258 | 3.2 | 17.7 | 0.00 | 0.00 | 0.00 | 47 | 1012.8 |
| 20260507164537 | 12 | 0 | 1.6 | 17.7 | 0.00 | 0.00 | 0.00 | 44 | 1012.8 |
| 20260507163041 | 12 | 250 | 0.0 | 19.3 | 0.00 | 0.00 | 0.00 | 49 | 1012.8 |
| 20260507161545 | 12 | 236 | 3.2 | 19.3 | 0.00 | 0.00 | 0.00 | 49 | 1013.0 |
| 20260507160041 | 11 | 309 | 3.2 | 14.5 | 0.00 | 0.00 | 0.00 | 50 | 1013.1 |
| 20260507154538 | 13 | 213 | 3.2 | 14.5 | 0.00 | 0.00 | 0.00 | 52 | 1013.0 |
| 20260507153037 | 12 | 211 | 4.8 | 17.7 | 0.00 | 0.00 | 0.00 | 52 | 1012.9 |
| 20260507151540 | 12 | 314 | 3.2 | 17.7 | 0.00 | 0.00 | 0.00 | 53 | 1013.0 |
| 20260507150043 | 11 | 254 | 3.2 | 12.9 | 0.00 | 0.00 | 0.00 | 55 | 1013.1 |
| 20260507144538 | 11 | 250 | 3.2 | 12.9 | 0.00 | 0.00 | 0.00 | 56 | 1013.2 |
| 20260507143048 | 11 | 19 | 1.6 | 11.3 | 0.00 | 0.00 | 0.00 | 58 | 1013.1 |
| 20260507141548 | 11 | 261 | 1.6 | 14.5 | 0.00 | 0.00 | 0.00 | 60 | 1013.3 |
| 20260507140037 | 10 | 0 | 0.0 | 8.0 | 0.00 | 0.00 | 0.00 | 61 | 1013.4 |
| 20260507134544 | 10 | 0 | 1.6 | 11.3 | 0.00 | 0.00 | 0.00 | 67 | 1013.5 |
| 20260507133108 | 8 | 240 | 0.0 | 6.4 | 0.00 | 0.00 | 0.00 | 68 | 1013.7 |
| 20260507131543 | 8 | 230 | 0.0 | 6.4 | 0.00 | 0.00 | 0.00 | 72 | 1013.7 |
| 20260507130048 | 8 | 319 | 1.6 | 14.5 | 0.00 | 0.00 | 0.00 | 72 | 1013.8 |
| 20260507124537 | 8 | 333 | 4.8 | 12.9 | 0.00 | 0.00 | 0.00 | 74 | 1013.8 |
| 20260507123040 | 7 | 223 | 0.0 | 9.7 | 0.00 | 0.00 | 0.00 | 74 | 1013.7 |
| 20260507121534 | 7 | 0 | 0.0 | 4.8 | 0.00 | 0.00 | 0.00 | 77 | 1013.6 |
| 20260507120039 | 6 | 0 | 1.6 | 11.3 | 0.00 | 0.00 | 0.00 | 77 | 1013.4 |
| 20260507114549 | 6 | 0 | 1.6 | 9.7 | 0.00 | 0.00 | 0.00 | 78 | 1013.5 |
| 20260507113039 | 5 | 0 | 0.0 | 6.4 | 0.00 | 0.00 | 0.00 | 80 | 1013.5 |
| 20260507111537 | 5 | 0 | 0.0 | 6.4 | 0.00 | 0.00 | 0.00 | 82 | 1013.4 |